Regional Weather Roundup
Issued by NWS Little Rock, AR

Home | Current Version | Previous Version | Graphics & Text | Print | Product List | Glossary On
Versions: 1 2 3 4 5 6 7 8 9 10 11 12 13 14 15 16 17 18 19 20 21 22 23 24 25 26 27 28 29 30 31 32 33 34 35 36 37 38 39 40 41 42 43 44 45 46 47 48 49 50
000
ASUS44 KLZK 190705
RWRLZK

WEATHER ROUNDUP FOR ARKANSAS
NATIONAL WEATHER SERVICE LITTLE ROCK AR
200 AM CDT FRI SEP 19 2014

NOTE: "FAIR" INDICATES FEW OR NO CLOUDS BELOW 12,000 FEET WITH NO
SIGNIFICANT WEATHER AND/OR OBSTRUCTIONS TO VISIBILITY.

ARZ001-003-010-029-190800-
NORTHWEST ARKANSAS

CITY           SKY/WX    TMP DP  RH WIND       PRES   REMARKS
FAYETTEVILLE   MOCLDY    63  63 100 E5        30.02S
FORT SMITH     MOCLDY    69  65  86 E10       29.99R
HARRISON       CLOUDY    64  63  96 SE6       30.05F
BENTONVILLE    CLOUDY    66  61  82 E8        30.03F
ROGERS         CLOUDY    65  61  87 E10       30.04S
SILOAM SPGS    CLEAR     64  57  77 E3        30.02S
HIGHFILL       CLOUDY    65  63  93 E7        30.02S
$$

ARZ004-005-016-190800-
NORTH CENTRAL ARKANSAS

CITY           SKY/WX    TMP DP  RH WIND       PRES   REMARKS
BATESVILLE     CLOUDY    64  63  94 W3        30.03S
FLIPPIN        CLOUDY    64  61  88 CALM      30.04F
MTN HOME       FOG       59  59 100 CALM      30.04S VSB 1/2
$$

ARZ040-041-190800-
WEST CENTRAL ARKANSAS

CITY           SKY/WX    TMP DP  RH WIND       PRES   REMARKS
MENA           CLOUDY    72  70  94 CALM      30.01R
MOUNT IDA      CLOUDY    72  68  87 CALM      29.98S
$$

ARZ009-017-025-026-028-190800-
NORTHEAST ARKANSAS

CITY           SKY/WX    TMP DP  RH WIND       PRES   REMARKS
CORNING          N/A     63  63 100 NE6       30.04S
JONESBORO      CLOUDY    66  62  87 NE6       30.02R
NEWPORT        CLOUDY    66  64  93 N7        30.03S
WALNUT RIDGE   CLOUDY    63  59  88 NE6       30.02S
BLYTHEVILLE    PTCLDY    62  61  96 NE3       30.02S
$$

ARZ022-023-033-042-044-190800-
CENTRAL ARKANSAS

CITY           SKY/WX    TMP DP  RH WIND       PRES   REMARKS
LITTLE ROCK    MOCLDY    69  62  78 N6        30.00S
N LITTLE ROCK    N/A     67  65  93 NE7       30.00S
JACKSONVILLE   MOCLDY    67  64  90 CALM      30.01S
SEARCY         CLOUDY    70  63  78 NE7       30.02S
HOT SPRINGS    MOCLDY    69  65  86 E7        30.00R
RUSSELLVILLE   CLOUDY    69  63  81 E3        30.02R
CLINTON        MOCLDY    66  66 100 CALM      30.03S FOG
$$

ARZ036-190800-
EAST ARKANSAS

CITY           SKY/WX    TMP DP  RH WIND       PRES   REMARKS
WEST MEMPHIS   CLEAR     67  66  97 NE5       29.98F
$$

ARZ050-053-066-070-073-190800-
SOUTHWEST ARKANSAS

CITY           SKY/WX    TMP DP  RH WIND       PRES   REMARKS
ARKADELPHIA    FAIR      70  69  96 NE5       29.98S
CAMDEN         CLEAR     68  66  94 NE5       29.96S FOG
TEXARKANA      MOCLDY    72  71  97 CALM      29.96S FOG
EL DORADO      PTCLDY    71  70  96 NE5       29.96R
DE QUEEN       MOCLDY    72  70  93 E5        29.95S FOG
$$

ARZ056-057-069-190800-
SOUTHEAST ARKANSAS

CITY           SKY/WX    TMP DP  RH WIND       PRES   REMARKS
PINE BLUFF     CLEAR     68  65  90 N3        29.98S
STUTTGART      CLEAR     66  63  88 N7        30.00S
MONTICELLO     MOCLDY    69  67  93 NE3       29.97R FOG

$$





USA.gov is the U.S. government's official web portal to all federal, state and local government web resources and services.